Year,Month,Day,Hour,Minute,Value (Times are PST for temperature in C)
2019,06,12,00,00,16.20
2019,06,12,00,01,16.20
2019,06,12,00,02,16.20
2019,06,12,00,03,16.20
2019,06,12,00,04,16.20
2019,06,12,00,05,16.20
2019,06,12,00,06,16.20
2019,06,12,00,07,16.20
2019,06,12,00,08,16.20
2019,06,12,00,09,16.20
2019,06,12,00,10,16.20
2019,06,12,00,11,16.20
2019,06,12,00,12,16.20
2019,06,12,00,13,16.20
2019,06,12,00,14,16.20
2019,06,12,00,15,16.20
2019,06,12,00,16,16.20
2019,06,12,00,17,16.20
2019,06,12,00,18,16.20
2019,06,12,00,19,16.30
2019,06,12,00,20,16.30
2019,06,12,00,21,16.30
2019,06,12,00,22,16.30
2019,06,12,00,23,16.30
2019,06,12,00,24,16.20
2019,06,12,00,25,16.30
2019,06,12,00,26,16.30
2019,06,12,00,27,16.30
2019,06,12,00,28,16.30
2019,06,12,00,29,16.30
2019,06,12,00,30,16.30
2019,06,12,00,31,16.30
2019,06,12,00,32,16.30
2019,06,12,00,33,16.40
2019,06,12,00,34,16.40
2019,06,12,00,35,16.40
2019,06,12,00,36,16.50
2019,06,12,00,37,16.50
2019,06,12,00,38,16.50
2019,06,12,00,39,16.60
2019,06,12,00,40,16.60
2019,06,12,00,41,16.60
2019,06,12,00,42,16.60
2019,06,12,00,43,16.60
2019,06,12,00,44,16.60
2019,06,12,00,45,16.60
2019,06,12,00,46,16.50
2019,06,12,00,47,16.50
2019,06,12,00,48,16.50
2019,06,12,00,49,16.50
2019,06,12,00,50,16.50
2019,06,12,00,51,16.50
2019,06,12,00,52,16.50
2019,06,12,00,53,16.50
2019,06,12,00,54,16.50
2019,06,12,00,55,16.50
2019,06,12,00,56,16.40
2019,06,12,00,57,16.40
2019,06,12,00,58,16.40
2019,06,12,00,59,16.30
2019,06,12,01,00,16.30
2019,06,12,01,01,16.30
2019,06,12,01,02,16.30
2019,06,12,01,03,16.30
2019,06,12,01,04,16.30
2019,06,12,01,05,16.20
2019,06,12,01,06,16.20
2019,06,12,01,07,16.20
2019,06,12,01,08,16.30
2019,06,12,01,09,16.30
2019,06,12,01,10,16.30
2019,06,12,01,11,16.30
2019,06,12,01,12,16.30
2019,06,12,01,13,16.30
2019,06,12,01,14,16.30
2019,06,12,01,15,16.30
2019,06,12,01,16,16.30
2019,06,12,01,17,16.20
2019,06,12,01,18,16.20
2019,06,12,01,19,16.20
2019,06,12,01,20,16.20
2019,06,12,01,21,16.20
2019,06,12,01,22,16.10
2019,06,12,01,23,16.10
2019,06,12,01,24,16.10
2019,06,12,01,25,16.10
2019,06,12,01,26,16.10
2019,06,12,01,27,16.10
2019,06,12,01,28,16.10
2019,06,12,01,29,16.00
2019,06,12,01,30,16.00
2019,06,12,01,31,16.00
2019,06,12,01,32,15.90
2019,06,12,01,33,15.90
2019,06,12,01,34,15.80
2019,06,12,01,35,15.80
2019,06,12,01,36,15.80
2019,06,12,01,37,15.80
2019,06,12,01,38,15.80
2019,06,12,01,39,15.80
2019,06,12,01,40,15.80
2019,06,12,01,41,15.80
2019,06,12,01,42,15.80
2019,06,12,01,43,15.90
2019,06,12,01,44,15.90
2019,06,12,01,45,15.90
2019,06,12,01,46,15.90
2019,06,12,01,47,15.90
2019,06,12,01,48,15.90
2019,06,12,01,49,15.90
2019,06,12,01,50,15.80
2019,06,12,01,51,15.80
2019,06,12,01,52,15.80
2019,06,12,01,53,15.80
2019,06,12,01,54,15.70
2019,06,12,01,55,15.70
2019,06,12,01,56,15.70
2019,06,12,01,57,15.70
2019,06,12,01,58,15.70
2019,06,12,01,59,15.60
2019,06,12,02,00,15.60
2019,06,12,02,01,15.60
2019,06,12,02,02,15.60
2019,06,12,02,03,15.60
2019,06,12,02,04,15.60
2019,06,12,02,05,15.60
2019,06,12,02,06,15.70
2019,06,12,02,07,15.70
2019,06,12,02,08,15.70
2019,06,12,02,09,15.70
2019,06,12,02,10,15.70
2019,06,12,02,11,15.70
2019,06,12,02,12,15.70
2019,06,12,02,13,15.70
2019,06,12,02,14,15.70
2019,06,12,02,15,15.70
2019,06,12,02,16,15.70
2019,06,12,02,17,15.70
2019,06,12,02,18,15.70
2019,06,12,02,19,15.70
2019,06,12,02,20,15.70
2019,06,12,02,21,15.80
2019,06,12,02,22,15.80
2019,06,12,02,23,15.80
2019,06,12,02,24,15.80
2019,06,12,02,25,15.80
2019,06,12,02,26,15.80
2019,06,12,02,27,15.80
2019,06,12,02,28,15.90
2019,06,12,02,29,15.90
2019,06,12,02,30,16.00
2019,06,12,02,31,16.10
2019,06,12,02,32,16.20
2019,06,12,02,33,16.20
2019,06,12,02,34,16.30
2019,06,12,02,35,16.20
2019,06,12,02,36,16.20
2019,06,12,02,37,16.10
2019,06,12,02,38,16.00
2019,06,12,02,39,15.90
2019,06,12,02,40,15.90
2019,06,12,02,41,15.80
2019,06,12,02,42,15.70
2019,06,12,02,43,15.60
2019,06,12,02,44,15.60
2019,06,12,02,45,15.50
2019,06,12,02,46,15.50
2019,06,12,02,47,15.50
2019,06,12,02,48,15.50
2019,06,12,02,49,15.40
2019,06,12,02,50,15.40
2019,06,12,02,51,15.40
2019,06,12,02,52,15.30
2019,06,12,02,53,15.30
2019,06,12,02,54,15.30
2019,06,12,02,55,15.30
2019,06,12,02,56,15.30
2019,06,12,02,57,15.40
2019,06,12,02,58,15.40
2019,06,12,02,59,15.40
2019,06,12,03,00,15.40
2019,06,12,03,01,15.40
2019,06,12,03,02,15.30
2019,06,12,03,03,15.30
2019,06,12,03,04,15.30
2019,06,12,03,05,15.30
2019,06,12,03,06,15.30
2019,06,12,03,07,15.20
2019,06,12,03,08,15.20
2019,06,12,03,09,15.30
2019,06,12,03,10,15.30
2019,06,12,03,11,15.30
2019,06,12,03,12,15.30
2019,06,12,03,13,15.30
2019,06,12,03,14,15.30
2019,06,12,03,15,15.30
2019,06,12,03,16,15.30
2019,06,12,03,17,15.30
2019,06,12,03,18,15.20
2019,06,12,03,19,15.20
2019,06,12,03,20,15.20
2019,06,12,03,21,15.20
2019,06,12,03,22,15.30
2019,06,12,03,23,15.30
2019,06,12,03,24,15.30
2019,06,12,03,25,15.20
2019,06,12,03,26,15.20
2019,06,12,03,27,15.20
2019,06,12,03,28,15.20
2019,06,12,03,29,15.20
2019,06,12,03,30,15.20
2019,06,12,03,31,15.20
2019,06,12,03,32,15.20
2019,06,12,03,33,15.20
2019,06,12,03,34,15.10
2019,06,12,03,35,15.10
2019,06,12,03,36,15.10
2019,06,12,03,37,15.10
2019,06,12,03,38,15.10
2019,06,12,03,39,15.10
2019,06,12,03,40,15.00
2019,06,12,03,41,15.00
2019,06,12,03,42,15.00
2019,06,12,03,43,14.90
2019,06,12,03,44,14.90
2019,06,12,03,45,14.80
2019,06,12,03,46,14.80
2019,06,12,03,47,14.80
2019,06,12,03,48,14.90
2019,06,12,03,49,14.90
2019,06,12,03,50,15.00
2019,06,12,03,51,15.00
2019,06,12,03,52,15.00
2019,06,12,03,53,15.10
2019,06,12,03,54,15.10
2019,06,12,03,55,15.20
2019,06,12,03,56,15.20
2019,06,12,03,57,15.30
2019,06,12,03,58,15.30
2019,06,12,03,59,15.40
2019,06,12,04,00,15.40
2019,06,12,04,01,15.40
2019,06,12,04,02,15.40
2019,06,12,04,03,15.40
2019,06,12,04,04,15.40
2019,06,12,04,05,15.40
2019,06,12,04,06,15.40
2019,06,12,04,07,15.40
2019,06,12,04,08,15.40
2019,06,12,04,09,15.40
2019,06,12,04,10,15.40
2019,06,12,04,11,15.40
2019,06,12,04,12,15.40
2019,06,12,04,13,15.50
2019,06,12,04,14,15.70
2019,06,12,04,15,15.70
2019,06,12,04,16,15.80
2019,06,12,04,17,15.80
2019,06,12,04,18,15.80
2019,06,12,04,19,15.80
2019,06,12,04,20,15.80
2019,06,12,04,21,15.90
2019,06,12,04,22,15.90
2019,06,12,04,23,15.80
2019,06,12,04,24,15.80
2019,06,12,04,25,15.70
2019,06,12,04,26,15.60
2019,06,12,04,27,15.50
2019,06,12,04,28,15.40
2019,06,12,04,29,15.30
2019,06,12,04,30,15.20
2019,06,12,04,31,15.20
2019,06,12,04,32,15.10
2019,06,12,04,33,15.10
2019,06,12,04,34,15.10
2019,06,12,04,35,15.10
2019,06,12,04,36,15.10
2019,06,12,04,37,15.10
2019,06,12,04,38,15.10
2019,06,12,04,39,15.10
2019,06,12,04,40,15.10
2019,06,12,04,41,15.10
2019,06,12,04,42,15.00
2019,06,12,04,43,15.00
2019,06,12,04,44,15.00
2019,06,12,04,45,15.00
2019,06,12,04,46,15.00
2019,06,12,04,47,15.10
2019,06,12,04,48,15.10
2019,06,12,04,49,15.10
2019,06,12,04,50,15.00
2019,06,12,04,51,15.00
2019,06,12,04,52,14.90
2019,06,12,04,53,14.90
2019,06,12,04,54,14.80
2019,06,12,04,55,14.80
2019,06,12,04,56,14.80
2019,06,12,04,57,14.70
2019,06,12,04,58,14.70
2019,06,12,04,59,14.70
2019,06,12,05,00,14.70
2019,06,12,05,01,14.70
2019,06,12,05,02,14.70
2019,06,12,05,03,14.70
2019,06,12,05,04,14.70
2019,06,12,05,05,14.80
2019,06,12,05,06,14.80
2019,06,12,05,07,14.80
2019,06,12,05,08,14.80
2019,06,12,05,09,14.90
2019,06,12,05,10,14.90
2019,06,12,05,11,14.90
2019,06,12,05,12,14.90
2019,06,12,05,13,14.80
2019,06,12,05,14,14.80
2019,06,12,05,15,14.80
2019,06,12,05,16,14.70
2019,06,12,05,17,14.70
2019,06,12,05,18,14.70
2019,06,12,05,19,14.80
2019,06,12,05,20,14.80
2019,06,12,05,21,14.90
2019,06,12,05,22,15.00
2019,06,12,05,23,15.10
2019,06,12,05,24,15.20
2019,06,12,05,25,15.20
2019,06,12,05,26,15.20
2019,06,12,05,27,15.20
2019,06,12,05,28,15.20
2019,06,12,05,29,15.20
2019,06,12,05,30,15.10
2019,06,12,05,31,15.10
2019,06,12,05,32,15.10
2019,06,12,05,33,15.10
2019,06,12,05,34,15.00
2019,06,12,05,35,14.90
2019,06,12,05,36,14.90
2019,06,12,05,37,14.90
2019,06,12,05,38,14.80
2019,06,12,05,39,14.80
2019,06,12,05,40,14.80
2019,06,12,05,41,14.70
2019,06,12,05,42,14.70
2019,06,12,05,43,14.70
2019,06,12,05,44,14.70
2019,06,12,05,45,14.70
2019,06,12,05,46,14.70
2019,06,12,05,47,14.70
2019,06,12,05,48,14.70
2019,06,12,05,49,14.70
2019,06,12,05,50,14.80
2019,06,12,05,51,14.80
2019,06,12,05,52,14.80
2019,06,12,05,53,14.80
2019,06,12,05,54,14.80
2019,06,12,05,55,14.80
2019,06,12,05,56,14.90
2019,06,12,05,57,14.90
2019,06,12,05,58,14.90
2019,06,12,05,59,15.00
2019,06,12,06,00,15.00
2019,06,12,06,01,15.00
2019,06,12,06,02,15.00
2019,06,12,06,03,15.00
2019,06,12,06,04,15.00
2019,06,12,06,05,15.00
2019,06,12,06,06,15.00
2019,06,12,06,07,15.10
2019,06,12,06,08,15.20
2019,06,12,06,09,15.20
2019,06,12,06,10,15.30
2019,06,12,06,11,15.30
2019,06,12,06,12,15.30
2019,06,12,06,13,15.30
2019,06,12,06,14,15.40
2019,06,12,06,15,15.50
2019,06,12,06,16,15.60
2019,06,12,06,17,15.70
2019,06,12,06,18,15.70
2019,06,12,06,19,15.80
2019,06,12,06,20,15.80
2019,06,12,06,21,15.80
2019,06,12,06,22,15.90
2019,06,12,06,23,15.90
2019,06,12,06,24,15.90
2019,06,12,06,25,15.90
2019,06,12,06,26,15.90
2019,06,12,06,27,15.90
2019,06,12,06,28,15.90
2019,06,12,06,29,15.90
2019,06,12,06,30,15.80
2019,06,12,06,31,15.80
2019,06,12,06,32,15.80
2019,06,12,06,33,15.80
2019,06,12,06,34,15.90
2019,06,12,06,35,15.90
2019,06,12,06,36,15.90
2019,06,12,06,37,15.90
2019,06,12,06,38,16.00
2019,06,12,06,39,16.00
2019,06,12,06,40,16.00
2019,06,12,06,41,16.10
2019,06,12,06,42,16.10
2019,06,12,06,43,16.20
2019,06,12,06,44,16.30
2019,06,12,06,45,16.30
2019,06,12,06,46,16.40
2019,06,12,06,47,16.40
2019,06,12,06,48,16.40
2019,06,12,06,49,16.50
2019,06,12,06,50,16.60
2019,06,12,06,51,16.60
2019,06,12,06,52,16.70
2019,06,12,06,53,16.70
2019,06,12,06,54,16.70
2019,06,12,06,55,16.80
2019,06,12,06,56,16.80
2019,06,12,06,57,16.80
2019,06,12,06,58,16.90
2019,06,12,06,59,16.90
2019,06,12,07,00,16.90
2019,06,12,07,01,17.00
2019,06,12,07,02,17.10
2019,06,12,07,03,17.10
2019,06,12,07,04,17.20
2019,06,12,07,05,17.20
2019,06,12,07,06,17.20
2019,06,12,07,07,17.20
2019,06,12,07,08,17.20
2019,06,12,07,09,17.30
2019,06,12,07,10,17.30
2019,06,12,07,11,17.30
2019,06,12,07,12,17.30
2019,06,12,07,13,17.30
2019,06,12,07,14,17.30
2019,06,12,07,15,17.30
2019,06,12,07,16,17.30
2019,06,12,07,17,17.30
2019,06,12,07,18,17.30
2019,06,12,07,19,17.20
2019,06,12,07,20,17.20
2019,06,12,07,21,17.20
2019,06,12,07,22,17.20
2019,06,12,07,23,17.20
2019,06,12,07,24,17.20
2019,06,12,07,25,17.30
2019,06,12,07,26,17.30
2019,06,12,07,27,17.40
2019,06,12,07,28,17.40
2019,06,12,07,29,17.50
2019,06,12,07,30,17.50
2019,06,12,07,31,17.50
2019,06,12,07,32,17.50
2019,06,12,07,33,17.60
2019,06,12,07,34,17.60
2019,06,12,07,35,17.60
2019,06,12,07,36,17.60
2019,06,12,07,37,17.70
2019,06,12,07,38,17.70
2019,06,12,07,39,17.70
2019,06,12,07,40,17.80
2019,06,12,07,41,17.80
2019,06,12,07,42,17.90
2019,06,12,07,43,17.90
2019,06,12,07,44,18.00
2019,06,12,07,45,18.00
2019,06,12,07,46,18.00
2019,06,12,07,47,18.10
2019,06,12,07,48,18.10
2019,06,12,07,49,18.20
2019,06,12,07,50,18.20
2019,06,12,07,51,18.30
2019,06,12,07,52,18.40
2019,06,12,07,53,18.50
2019,06,12,07,54,18.60
2019,06,12,07,55,18.60
2019,06,12,07,56,18.70
2019,06,12,07,57,18.70
2019,06,12,07,58,18.70
2019,06,12,07,59,18.70
2019,06,12,08,00,18.80
2019,06,12,08,01,18.80
2019,06,12,08,02,18.80
2019,06,12,08,03,18.90
2019,06,12,08,04,18.90
2019,06,12,08,05,18.90
2019,06,12,08,06,18.90
2019,06,12,08,07,19.00
2019,06,12,08,08,19.00
2019,06,12,08,09,19.10
2019,06,12,08,10,19.10
2019,06,12,08,11,19.20
2019,06,12,08,12,19.30
2019,06,12,08,13,19.30
2019,06,12,08,14,19.40
2019,06,12,08,15,19.50
2019,06,12,08,16,19.50
2019,06,12,08,17,19.60
2019,06,12,08,18,19.70
2019,06,12,08,19,19.80
2019,06,12,08,20,19.80
2019,06,12,08,21,19.80
2019,06,12,08,22,19.90
2019,06,12,08,23,19.90
2019,06,12,08,24,20.00
2019,06,12,08,25,20.10
2019,06,12,08,26,20.20
2019,06,12,08,27,20.30
2019,06,12,08,28,20.40
2019,06,12,08,29,20.50
2019,06,12,08,30,20.60
2019,06,12,08,31,20.60
2019,06,12,08,32,20.70
2019,06,12,08,33,20.70
2019,06,12,08,34,20.80
2019,06,12,08,35,20.90
2019,06,12,08,36,21.10
2019,06,12,08,37,21.20
2019,06,12,08,38,21.40
2019,06,12,08,39,21.50
2019,06,12,08,40,21.60
2019,06,12,08,41,21.70
2019,06,12,08,42,21.70
2019,06,12,08,43,21.80
2019,06,12,08,44,21.80
2019,06,12,08,45,21.80
2019,06,12,08,46,21.80
2019,06,12,08,47,21.90
2019,06,12,08,48,21.90
2019,06,12,08,49,21.90
2019,06,12,08,50,21.90
2019,06,12,08,51,22.00
2019,06,12,08,52,22.00
2019,06,12,08,53,22.00
2019,06,12,08,54,22.00
2019,06,12,08,55,21.90
2019,06,12,08,56,21.90
2019,06,12,08,57,21.90
2019,06,12,08,58,21.90
2019,06,12,08,59,21.80
2019,06,12,09,00,21.80
2019,06,12,09,01,21.80
2019,06,12,09,02,21.80
2019,06,12,09,03,21.70
2019,06,12,09,04,21.70
2019,06,12,09,05,21.70
2019,06,12,09,06,21.60
2019,06,12,09,07,21.60
2019,06,12,09,08,21.50
2019,06,12,09,09,21.40
2019,06,12,09,10,21.40
2019,06,12,09,11,21.40
2019,06,12,09,12,21.40
2019,06,12,09,13,21.30
2019,06,12,09,14,21.30
2019,06,12,09,15,21.40
2019,06,12,09,16,21.40
2019,06,12,09,17,21.40
2019,06,12,09,18,21.40
2019,06,12,09,19,21.50
2019,06,12,09,20,21.60
2019,06,12,09,21,21.60
2019,06,12,09,22,21.60
2019,06,12,09,23,21.60
2019,06,12,09,24,21.60
2019,06,12,09,25,21.60
2019,06,12,09,26,21.50
2019,06,12,09,27,21.40
2019,06,12,09,28,21.30
2019,06,12,09,29,21.30
2019,06,12,09,30,21.20
2019,06,12,09,31,21.20
2019,06,12,09,32,21.20
2019,06,12,09,33,21.10
2019,06,12,09,34,21.10
2019,06,12,09,35,21.10
2019,06,12,09,36,21.10
2019,06,12,09,37,21.10
2019,06,12,09,38,21.10
2019,06,12,09,39,21.20
2019,06,12,09,40,21.20
2019,06,12,09,41,21.20
2019,06,12,09,42,21.20
2019,06,12,09,43,21.30
2019,06,12,09,44,21.30
2019,06,12,09,45,21.40
2019,06,12,09,46,21.40
2019,06,12,09,47,21.40
2019,06,12,09,48,21.40
2019,06,12,09,49,21.40
2019,06,12,09,50,21.40
2019,06,12,09,51,21.40
2019,06,12,09,52,21.40
2019,06,12,09,53,21.40
2019,06,12,09,54,21.40
2019,06,12,09,55,21.40
2019,06,12,09,56,21.50
2019,06,12,09,57,21.60
2019,06,12,09,58,21.60
2019,06,12,09,59,21.70
2019,06,12,10,00,21.70
2019,06,12,10,01,21.70
2019,06,12,10,02,21.70
2019,06,12,10,03,21.70
2019,06,12,10,04,21.70
2019,06,12,10,05,21.70
2019,06,12,10,06,21.80
2019,06,12,10,07,21.90
2019,06,12,10,08,21.90
2019,06,12,10,09,22.00
2019,06,12,10,10,22.10
2019,06,12,10,11,22.10
2019,06,12,10,12,22.20
2019,06,12,10,13,22.30
2019,06,12,10,14,22.30
2019,06,12,10,15,22.40
2019,06,12,10,16,22.50
2019,06,12,10,17,22.60
2019,06,12,10,18,22.70
2019,06,12,10,19,22.80
2019,06,12,10,20,22.90
2019,06,12,10,21,22.90
2019,06,12,10,22,23.00
2019,06,12,10,23,23.20
2019,06,12,10,24,23.30
2019,06,12,10,25,23.30
2019,06,12,10,26,23.40
2019,06,12,10,27,23.50
2019,06,12,10,28,23.60
2019,06,12,10,29,23.60
2019,06,12,10,30,23.60
2019,06,12,10,31,23.60
2019,06,12,10,32,23.60
2019,06,12,10,33,23.60
2019,06,12,10,34,23.60
2019,06,12,10,35,23.60
2019,06,12,10,36,23.50
2019,06,12,10,37,23.50
2019,06,12,10,38,23.50
2019,06,12,10,39,23.40
2019,06,12,10,40,23.30
2019,06,12,10,41,23.30
2019,06,12,10,42,23.20
2019,06,12,10,43,23.20
2019,06,12,10,44,23.20
2019,06,12,10,45,23.20
2019,06,12,10,46,23.20
2019,06,12,10,47,23.30
2019,06,12,10,48,23.20
2019,06,12,10,49,23.20
2019,06,12,10,50,23.20
2019,06,12,10,51,23.30
2019,06,12,10,52,23.30
2019,06,12,10,53,23.30
2019,06,12,10,54,23.30
2019,06,12,10,55,23.40
2019,06,12,10,56,23.40
2019,06,12,10,57,23.50
2019,06,12,10,58,23.60
2019,06,12,10,59,23.70
2019,06,12,11,00,23.70
2019,06,12,11,01,23.80
2019,06,12,11,02,23.80
2019,06,12,11,03,23.90
2019,06,12,11,04,23.90
2019,06,12,11,05,24.00
2019,06,12,11,06,24.10
2019,06,12,11,07,24.10
2019,06,12,11,08,24.10
2019,06,12,11,09,24.20
2019,06,12,11,10,24.20
2019,06,12,11,11,24.20
2019,06,12,11,12,24.20
2019,06,12,11,13,24.10
2019,06,12,11,14,24.10
2019,06,12,11,15,24.10
2019,06,12,11,16,24.10
2019,06,12,11,17,24.10
2019,06,12,11,18,24.10
2019,06,12,11,19,24.10
2019,06,12,11,20,24.00
2019,06,12,11,21,23.90
2019,06,12,11,22,23.80
2019,06,12,11,23,23.80
2019,06,12,11,24,23.70
2019,06,12,11,25,23.70
2019,06,12,11,26,23.60
2019,06,12,11,27,23.60
2019,06,12,11,28,23.60
2019,06,12,11,29,23.60
2019,06,12,11,30,23.60
2019,06,12,11,31,23.60
2019,06,12,11,32,23.50
2019,06,12,11,33,23.50
2019,06,12,11,34,23.40
2019,06,12,11,35,23.30
2019,06,12,11,36,23.20
2019,06,12,11,37,23.20
2019,06,12,11,38,23.20
2019,06,12,11,39,23.20
2019,06,12,11,40,23.20
2019,06,12,11,41,23.20
2019,06,12,11,42,23.30
2019,06,12,11,43,23.30
2019,06,12,11,44,23.40
2019,06,12,11,45,23.50
2019,06,12,11,46,23.60
2019,06,12,11,47,23.60
2019,06,12,11,48,23.60
2019,06,12,11,49,23.60
2019,06,12,11,50,23.70
2019,06,12,11,51,23.80
2019,06,12,11,52,23.90
2019,06,12,11,53,24.00
2019,06,12,11,54,24.10
2019,06,12,11,55,24.30
2019,06,12,11,56,24.40
2019,06,12,11,57,24.50
2019,06,12,11,58,24.60
2019,06,12,11,59,24.70
2019,06,12,12,00,24.70
2019,06,12,12,01,24.80
2019,06,12,12,02,24.80
2019,06,12,12,03,24.90
2019,06,12,12,04,25.00
2019,06,12,12,05,25.10
2019,06,12,12,06,25.20
2019,06,12,12,07,25.30
2019,06,12,12,08,25.40
2019,06,12,12,09,25.50
2019,06,12,12,10,25.60
2019,06,12,12,11,25.70
2019,06,12,12,12,25.60
2019,06,12,12,13,25.60
2019,06,12,12,14,25.60
2019,06,12,12,15,25.60
2019,06,12,12,16,25.60
2019,06,12,12,17,25.60
2019,06,12,12,18,25.70
2019,06,12,12,19,25.70
2019,06,12,12,20,25.80
2019,06,12,12,21,25.80
2019,06,12,12,22,25.80
2019,06,12,12,23,25.80
2019,06,12,12,24,25.80
2019,06,12,12,25,25.80
2019,06,12,12,26,25.80
2019,06,12,12,27,25.70
2019,06,12,12,28,25.70
2019,06,12,12,29,25.70
2019,06,12,12,30,25.80
2019,06,12,12,31,25.80
2019,06,12,12,32,25.90
2019,06,12,12,33,26.00
2019,06,12,12,34,26.10
2019,06,12,12,35,26.20
2019,06,12,12,36,26.20
2019,06,12,12,37,26.30
2019,06,12,12,38,26.30
2019,06,12,12,39,26.20
2019,06,12,12,40,26.20
2019,06,12,12,41,26.10
2019,06,12,12,42,26.10
2019,06,12,12,43,26.10
2019,06,12,12,44,26.00
2019,06,12,12,45,26.00
2019,06,12,12,46,26.10
2019,06,12,12,47,26.00
2019,06,12,12,48,26.00
2019,06,12,12,49,26.00
2019,06,12,12,50,26.00
2019,06,12,12,51,26.00
2019,06,12,12,52,26.00
2019,06,12,12,53,25.90
2019,06,12,12,54,25.80
2019,06,12,12,55,25.60
2019,06,12,12,56,25.40
2019,06,12,12,57,25.10
2019,06,12,12,58,24.90
2019,06,12,12,59,24.80
2019,06,12,13,00,24.60
2019,06,12,13,01,24.40
2019,06,12,13,02,24.30
2019,06,12,13,03,24.10
2019,06,12,13,04,24.00
2019,06,12,13,05,24.00
2019,06,12,13,06,24.00
2019,06,12,13,07,23.90
2019,06,12,13,08,23.90
2019,06,12,13,09,23.80
2019,06,12,13,10,23.70
2019,06,12,13,11,23.70
2019,06,12,13,12,23.60
2019,06,12,13,13,23.60
2019,06,12,13,14,23.60
2019,06,12,13,15,23.60
2019,06,12,13,16,23.60
2019,06,12,13,17,23.60
2019,06,12,13,18,23.60
2019,06,12,13,19,23.60
2019,06,12,13,20,23.60
2019,06,12,13,21,23.50
2019,06,12,13,22,23.50
2019,06,12,13,23,23.50
2019,06,12,13,24,23.50
2019,06,12,13,25,23.50
2019,06,12,13,26,23.50
2019,06,12,13,27,23.50
2019,06,12,13,28,23.60
2019,06,12,13,29,23.60
2019,06,12,13,30,23.60
2019,06,12,13,31,23.50
2019,06,12,13,32,23.50
2019,06,12,13,33,23.60
2019,06,12,13,34,23.60
2019,06,12,13,35,23.60
2019,06,12,13,36,23.70
2019,06,12,13,37,23.60
2019,06,12,13,38,23.70
2019,06,12,13,39,23.70
2019,06,12,13,40,23.70
2019,06,12,13,41,23.60
2019,06,12,13,42,23.60
2019,06,12,13,43,23.50
2019,06,12,13,44,23.40
2019,06,12,13,45,23.20
2019,06,12,13,46,23.10
2019,06,12,13,47,23.10
2019,06,12,13,48,23.10
2019,06,12,13,49,23.20
2019,06,12,13,50,23.30
2019,06,12,13,51,23.30
2019,06,12,13,52,23.40
2019,06,12,13,53,23.60
2019,06,12,13,54,23.70
2019,06,12,13,55,23.80
2019,06,12,13,56,23.90
2019,06,12,13,57,24.10
2019,06,12,13,58,24.20
2019,06,12,13,59,24.30
2019,06,12,14,00,24.30
2019,06,12,14,01,24.20
2019,06,12,14,02,24.20
2019,06,12,14,03,24.20
2019,06,12,14,04,24.10
2019,06,12,14,05,24.00
2019,06,12,14,06,23.90
2019,06,12,14,07,23.90
2019,06,12,14,08,23.80
2019,06,12,14,09,23.80
2019,06,12,14,10,23.80
2019,06,12,14,11,23.90
2019,06,12,14,12,24.00
2019,06,12,14,13,24.10
2019,06,12,14,14,24.00
2019,06,12,14,15,23.80
2019,06,12,14,16,23.60
2019,06,12,14,17,23.40
2019,06,12,14,18,23.30
2019,06,12,14,19,23.30
2019,06,12,14,20,23.30
2019,06,12,14,21,23.40
2019,06,12,14,22,23.40
2019,06,12,14,23,23.40
2019,06,12,14,24,23.40
2019,06,12,14,25,23.50
2019,06,12,14,26,23.50
2019,06,12,14,27,23.70
2019,06,12,14,28,23.80
2019,06,12,14,29,23.90
2019,06,12,14,30,24.00
2019,06,12,14,31,24.10
2019,06,12,14,32,24.10
2019,06,12,14,33,24.10
2019,06,12,14,34,24.10
2019,06,12,14,35,24.00
2019,06,12,14,36,24.00
2019,06,12,14,37,24.00
2019,06,12,14,38,23.90
2019,06,12,14,39,23.90
2019,06,12,14,40,23.80
2019,06,12,14,41,23.80
2019,06,12,14,42,23.70
2019,06,12,14,43,23.70
2019,06,12,14,44,23.70
2019,06,12,14,45,23.70
2019,06,12,14,46,23.70
2019,06,12,14,47,23.80
2019,06,12,14,48,23.80
2019,06,12,14,49,23.80
2019,06,12,14,50,23.90
2019,06,12,14,51,24.00
2019,06,12,14,52,24.10
2019,06,12,14,53,24.10
2019,06,12,14,54,24.10
2019,06,12,14,55,24.10
2019,06,12,14,56,24.10
2019,06,12,14,57,24.00
2019,06,12,14,58,23.90
2019,06,12,14,59,24.00
2019,06,12,15,00,24.00
2019,06,12,15,01,24.10
2019,06,12,15,02,24.10
2019,06,12,15,03,23.90
2019,06,12,15,04,23.60
2019,06,12,15,05,23.30
2019,06,12,15,06,23.20
2019,06,12,15,07,23.00
2019,06,12,15,08,22.80
2019,06,12,15,09,22.80
2019,06,12,15,10,22.90
2019,06,12,15,11,22.90
2019,06,12,15,12,23.00
2019,06,12,15,13,23.00
2019,06,12,15,14,22.90
2019,06,12,15,15,22.90
2019,06,12,15,16,22.90
2019,06,12,15,17,23.00
2019,06,12,15,18,23.00
2019,06,12,15,19,23.10
2019,06,12,15,20,22.90
2019,06,12,15,21,22.80
2019,06,12,15,22,22.80
2019,06,12,15,23,22.70
2019,06,12,15,24,22.60
2019,06,12,15,25,22.50
2019,06,12,15,26,22.50
2019,06,12,15,27,22.50
2019,06,12,15,28,22.50
2019,06,12,15,29,22.40
2019,06,12,15,30,22.30
2019,06,12,15,31,22.10
2019,06,12,15,32,22.10
2019,06,12,15,33,22.20
2019,06,12,15,34,22.20
2019,06,12,15,35,22.20
2019,06,12,15,36,22.30
2019,06,12,15,37,22.40
2019,06,12,15,38,22.50
2019,06,12,15,39,22.60
2019,06,12,15,40,22.60
2019,06,12,15,41,22.50
2019,06,12,15,42,22.40
2019,06,12,15,43,22.40
2019,06,12,15,44,22.40
2019,06,12,15,45,22.40
2019,06,12,15,46,22.50
2019,06,12,15,47,22.50
2019,06,12,15,48,22.60
2019,06,12,15,49,22.70
2019,06,12,15,50,22.80
2019,06,12,15,51,22.90
2019,06,12,15,52,23.00
2019,06,12,15,53,23.00
2019,06,12,15,54,23.10
2019,06,12,15,55,23.30
2019,06,12,15,56,23.40
2019,06,12,15,57,23.50
2019,06,12,15,58,23.60
2019,06,12,15,59,23.70
2019,06,12,16,00,23.80
2019,06,12,16,01,23.70
2019,06,12,16,02,23.70
2019,06,12,16,03,23.60
2019,06,12,16,04,23.60
2019,06,12,16,05,23.50
2019,06,12,16,06,23.30
2019,06,12,16,07,23.30
2019,06,12,16,08,23.20
2019,06,12,16,09,23.20
2019,06,12,16,10,23.20
2019,06,12,16,11,23.30
2019,06,12,16,12,23.30
2019,06,12,16,13,23.40
2019,06,12,16,14,23.50
2019,06,12,16,15,23.60
2019,06,12,16,16,23.80
2019,06,12,16,17,23.80
2019,06,12,16,18,23.80
2019,06,12,16,19,23.70
2019,06,12,16,20,23.70
2019,06,12,16,21,23.70
2019,06,12,16,22,23.80
2019,06,12,16,23,23.80
2019,06,12,16,24,23.80
2019,06,12,16,25,23.80
2019,06,12,16,26,23.80
2019,06,12,16,27,23.80
2019,06,12,16,28,23.80
2019,06,12,16,29,23.90
2019,06,12,16,30,24.00
2019,06,12,16,31,24.00
2019,06,12,16,32,24.00
2019,06,12,16,33,24.10
2019,06,12,16,34,24.10
2019,06,12,16,35,24.00
2019,06,12,16,36,23.90
2019,06,12,16,37,23.90
2019,06,12,16,38,23.80
2019,06,12,16,39,23.80
2019,06,12,16,40,23.90
2019,06,12,16,41,23.80
2019,06,12,16,42,23.80
2019,06,12,16,43,23.70
2019,06,12,16,44,23.70
2019,06,12,16,45,23.80
2019,06,12,16,46,23.80
2019,06,12,16,47,23.80
2019,06,12,16,48,23.90
2019,06,12,16,49,24.00
2019,06,12,16,50,24.00
2019,06,12,16,51,23.90
2019,06,12,16,52,23.90
2019,06,12,16,53,23.90
2019,06,12,16,54,23.90
2019,06,12,16,55,23.90
2019,06,12,16,56,23.90
2019,06,12,16,57,23.80
2019,06,12,16,58,23.70
2019,06,12,16,59,23.60
2019,06,12,17,00,23.50
2019,06,12,17,01,23.40
2019,06,12,17,02,23.40
2019,06,12,17,03,23.30
2019,06,12,17,04,23.40
2019,06,12,17,05,23.40
2019,06,12,17,06,23.40
2019,06,12,17,07,23.40
2019,06,12,17,08,23.40
2019,06,12,17,09,23.50
2019,06,12,17,10,23.50
2019,06,12,17,11,23.60
2019,06,12,17,12,23.70
2019,06,12,17,13,23.80
2019,06,12,17,14,24.00
2019,06,12,17,15,24.10
2019,06,12,17,16,24.10
2019,06,12,17,17,24.10
2019,06,12,17,18,24.20
2019,06,12,17,19,24.20